Hourly Data Report for October 17, 2015

All times are specified in Local Standard Time (LST). Add 1 hour to adjust for Daylight Saving Time where and when it is observed.

IQALUIT CLIMATE
NUNAVUT

63°44'50.000" N
68°32'40.000" W
33.50 m
2402592
71321
XFB

Download Data

Hourly Data (October 2015)
Hourly Data Report for October 17, 2015
Temp Definition
°C
Dew Point Temp Definition
°C
Rel Hum Definition
%
Wind Dir Definition
10's deg

Wind Spd Definition
km/h
Visibility Definition
km
Stn Press Definition
kPa
Hmdx Definition


Wind Chill Definition


Weather Definition


TIME
00:00 -6.6 -10.0 77 30 7   100.68   -10 LegendNANA
01:00 -6.6 -9.7 79 2 4   100.67   -9 LegendNANA
02:00 -6.5 -9.8 77 34 3   100.66   -8 LegendNANA
03:00 -6.4 -9.9 76 0 1   100.66   -7 LegendNANA
04:00 -6.3 -9.2 80 9 4   100.65   -8 LegendNANA
05:00 -6.2 -9.0 81 6 4   100.66   -8 LegendNANA
06:00 -6.0 -8.6 82 8 2   100.67   -7 LegendNANA
07:00 -5.8 -8.3 82 1 3   100.68   -7 LegendNANA
08:00 -5.4 -8.7 78   0   100.69     LegendNANA
09:00 -4.8 -9.6 69 32 1   100.68   -5 LegendNANA
10:00 -4.2 -9.0 69 28 5   100.66   -6 LegendNANA
11:00 -4.2 -9.1 69 25 4   100.67   -6 LegendNANA
12:00 -4.2 -8.3 73 17 5   100.66   -6 LegendNANA
13:00 -3.8 -8.5 69 21 3   100.65   -5 LegendNANA
14:00 -3.5 -8.7 67 23 13   100.66   -8 LegendNANA
15:00 -3.9 -9.2 66 25 14   100.68   -9 LegendNANA
16:00 -4.3 -8.7 71 31 11   100.70   -9 LegendNANA
17:00 -5.2 -7.9 81 1 8   100.73   -9 LegendNANA
18:00 -5.3 -8.3 80 35 10   100.74   -10 LegendNANA
19:00 -5.6 -8.9 78 1 7   100.76   -9 LegendNANA
20:00 -6.1 -8.1 86 35 5   100.76   -9 LegendNANA
21:00 -6.7 -9.4 81 36 7   100.77   -10 LegendNANA
22:00 -6.9 -9.9 79 34 8   100.77   -11 LegendNANA
23:00 -6.8 -10.2 77 36 8   100.78   -11 LegendNANA

Notes on Data Quality.

Legend

  • E = Estimated
  • M = Missing
  • NA = Not Available
  • ‡ = Partner data that is not subject to review by the National Climate Archives
Date modified: